When you browse on this site, cookies collect data to enhance your experience and personalize the content and advertising you see.
Visit our Privacy Policy to learn more. By continuing to use the site, you agree to this use of cookies and data.

Hourly Weather São Paulo

Today, 22 September, Tuesday

Time Temperature Precipitation Wind Pressure Humidity
00:00 +15°C° 0 mm 5 mps 701 mmHg 88%
01:00 +15°C° 0 mm 4 mps 701 mmHg 88%
02:00 +15°C° 0 mm 4 mps 701 mmHg 88%
03:00 +15°C° 0 mm 4 mps 701 mmHg 89%
04:00 +15°C° 3.1 mm 4 mps 701 mmHg 89%
05:00 +15°C° 3.1 mm 4 mps 701 mmHg 89%
06:00 +15°C° 3.1 mm 4 mps 701 mmHg 89%
07:00 +15°C° 0.7 mm 4 mps 702 mmHg 89%
08:00 +15°C° 0.7 mm 4 mps 702 mmHg 89%
09:00 +15°C° 0.7 mm 4 mps 703 mmHg 88%
10:00 +15°C° 0.4 mm 4 mps 703 mmHg 89%
11:00 +16°C° 0.4 mm 3 mps 703 mmHg 89%
12:00 +16°C° 0.4 mm 3 mps 703 mmHg 89%
13:00 +15°C° 0.3 mm 4 mps 703 mmHg 89%
14:00 +15°C° 0.3 mm 4 mps 703 mmHg 88%
15:00 +15°C° 0.3 mm 4 mps 703 mmHg 87%
16:00 +15°C° 0.3 mm 4 mps 702 mmHg 88%
17:00 +15°C° 0.3 mm 4 mps 702 mmHg 88%
18:00 +14°C° 0.3 mm 4 mps 702 mmHg 89%
19:00 +14°C° 0 mm 4 mps 703 mmHg 89%
20:00 +14°C° 0 mm 4 mps 703 mmHg 90%
21:00 +14°C° 0 mm 4 mps 703 mmHg 90%
22:00 +15°C° 0 mm 4 mps 703 mmHg 89%
23:00 +15°C° 0 mm 4 mps 703 mmHg 89%

Tomorrow, 23 September, Wednesday

Time Temperature Precipitation Wind Pressure Humidity
00:00 +16°C° 0 mm 3 mps 703 mmHg 88%
01:00 +16°C° 0 mm 3 mps 703 mmHg 88%
02:00 +16°C° 0 mm 3 mps 702 mmHg 89%
03:00 +16°C° 0 mm 3 mps 702 mmHg 89%
04:00 +16°C° 0 mm 3 mps 702 mmHg 90%
05:00 +16°C° 0 mm 3 mps 702 mmHg 91%
06:00 +16°C° 0 mm 3 mps 703 mmHg 91%
07:00 +17°C° 0 mm 3 mps 703 mmHg 90%
08:00 +17°C° 0 mm 2 mps 704 mmHg 88%
09:00 +18°C° 0 mm 2 mps 704 mmHg 86%
10:00 +18°C° 0 mm 3 mps 704 mmHg 84%
11:00 +19°C° 0 mm 3 mps 704 mmHg 82%
12:00 +19°C° 0 mm 3 mps 704 mmHg 80%
13:00 +20°C° 0 mm 3 mps 704 mmHg 78%
14:00 +20°C° 0 mm 3 mps 703 mmHg 76%
15:00 +21°C° 0 mm 4 mps 703 mmHg 75%
16:00 +20°C° 0 mm 3 mps 703 mmHg 78%
17:00 +19°C° 0 mm 3 mps 703 mmHg 82%
18:00 +19°C° 0 mm 3 mps 703 mmHg 85%
19:00 +18°C° 0 mm 3 mps 703 mmHg 86%
20:00 +18°C° 0 mm 3 mps 703 mmHg 87%
21:00 +18°C° 0 mm 2 mps 703 mmHg 88%
22:00 +18°C° 0 mm 2 mps 703 mmHg 89%
23:00 +18°C° 0 mm 2 mps 703 mmHg 90%

Day after tomorrow, 24 September, Thursday

Time Temperature Precipitation Wind Pressure Humidity
00:00 +17°C° 0 mm 2 mps 703 mmHg 91%
01:00 +18°C° 0 mm 2 mps 702 mmHg 90%
02:00 +18°C° 0 mm 2 mps 702 mmHg 89%
03:00 +18°C° 0 mm 2 mps 702 mmHg 88%
04:00 +18°C° 0 mm 2 mps 702 mmHg 87%
05:00 +18°C° 0 mm 2 mps 702 mmHg 87%
06:00 +18°C° 0 mm 1 mps 702 mmHg 86%
07:00 +19°C° 0 mm 2 mps 702 mmHg 79%
08:00 +20°C° 0 mm 2 mps 703 mmHg 72%
09:00 +23°C° 0 mm 2 mps 703 mmHg 65%
10:00 +25°C° 0 mm 2 mps 703 mmHg 58%
11:00 +27°C° 0 mm 2 mps 703 mmHg 51%
12:00 +28°C° 0 mm 1 mps 703 mmHg 43%
13:00 +29°C° 0 mm 2 mps 703 mmHg 43%
14:00 +29°C° 0 mm 2 mps 702 mmHg 43%
15:00 +29°C° 0 mm 3 mps 702 mmHg 42%
16:00 +27°C° 0 mm 3 mps 701 mmHg 53%
17:00 +25°C° 0 mm 3 mps 701 mmHg 63%
18:00 +22°C° 0 mm 4 mps 701 mmHg 73%
19:00 +21°C° 0 mm 3 mps 701 mmHg 77%
20:00 +20°C° 0 mm 3 mps 701 mmHg 80%
21:00 +20°C° 0 mm 2 mps 701 mmHg 84%
22:00 +19°C° 0 mm 2 mps 701 mmHg 85%
23:00 +19°C° 0 mm 2 mps 701 mmHg 85%

25 September, Friday

Time Temperature Precipitation Wind Pressure Humidity
00:00 +20°C° 0 mm 1 mps 701 mmHg 86%
01:00 +20°C° 0 mm 1 mps 701 mmHg 87%
02:00 +18°C° 0 mm 2 mps 701 mmHg 88%
03:00 +18°C° 0 mm 2 mps 700 mmHg 89%
04:00 +18°C° 0 mm 2 mps 700 mmHg 89%
05:00 +18°C° 0 mm 2 mps 701 mmHg 89%
06:00 +18°C° 0 mm 2 mps 701 mmHg 89%
07:00 +20°C° 0 mm 2 mps 701 mmHg 79%
08:00 +23°C° 0 mm 2 mps 702 mmHg 70%
09:00 +25°C° 0 mm 2 mps 702 mmHg 60%
10:00 +27°C° 0 mm 2 mps 702 mmHg 51%
11:00 +29°C° 0 mm 1 mps 702 mmHg 41%
12:00 +31°C° 0 mm 1 mps 702 mmHg 31%
13:00 +32°C° 0 mm 1 mps 702 mmHg 31%
14:00 +32°C° 0 mm 2 mps 701 mmHg 31%
15:00 +32°C° 0 mm 2 mps 701 mmHg 31%
16:00 +30°C° 0 mm 2 mps 700 mmHg 41%
17:00 +28°C° 0 mm 2 mps 700 mmHg 51%
18:00 +26°C° 0 mm 3 mps 699 mmHg 61%
19:00 +25°C° 0 mm 2 mps 699 mmHg 64%
20:00 +25°C° 0 mm 2 mps 700 mmHg 66%
21:00 +24°C° 0 mm 2 mps 700 mmHg 69%
22:00 +24°C° 0 mm 2 mps 700 mmHg 71%
23:00 +23°C° 0 mm 2 mps 700 mmHg 73%

26 September, Saturday

Time Temperature Precipitation Wind Pressure Humidity
00:00 +23°C° 0 mm 2 mps 700 mmHg 75%
01:00 +23°C° 0 mm 2 mps 699 mmHg 74%
02:00 +21°C° 0 mm 2 mps 699 mmHg 73%
03:00 +21°C° 0 mm 2 mps 699 mmHg 72%
04:00 +21°C° 0 mm 2 mps 699 mmHg 71%
05:00 +20°C° 0 mm 2 mps 699 mmHg 69%
06:00 +20°C° 0 mm 2 mps 699 mmHg 68%
07:00 +23°C° 0 mm 2 mps 699 mmHg 60%
08:00 +25°C° 0 mm 2 mps 700 mmHg 52%
09:00 +28°C° 0 mm 3 mps 700 mmHg 43%
10:00 +30°C° 0 mm 2 mps 700 mmHg 37%
11:00 +32°C° 0 mm 2 mps 700 mmHg 31%
12:00 +34°C° 0 mm 2 mps 700 mmHg 25%
13:00 +35°C° 0 mm 2 mps 699 mmHg 24%
14:00 +35°C° 0 mm 2 mps 699 mmHg 23%
15:00 +36°C° 0 mm 3 mps 698 mmHg 22%
16:00 +34°C° 0 mm 2 mps 698 mmHg 26%
17:00 +32°C° 0 mm 2 mps 698 mmHg 29%
18:00 +30°C° 0 mm 2 mps 697 mmHg 32%
19:00 +29°C° 0 mm 2 mps 697 mmHg 35%
20:00 +28°C° 0 mm 2 mps 698 mmHg 37%
21:00 +27°C° 0 mm 2 mps 698 mmHg 40%
22:00 +27°C° 0 mm 2 mps 697 mmHg 40%
23:00 +26°C° 0 mm 2 mps 697 mmHg 41%

27 September, Sunday

Time Temperature Precipitation Wind Pressure Humidity
00:00 +26°C° 0 mm 2 mps 697 mmHg 41%
01:00 +25°C° 0 mm 2 mps 697 mmHg 42%
02:00 +25°C° 0 mm 2 mps 696 mmHg 43%
03:00 +24°C° 0 mm 2 mps 696 mmHg 44%
04:00 +24°C° 0 mm 2 mps 696 mmHg 44%
05:00 +24°C° 0 mm 2 mps 696 mmHg 45%
06:00 +23°C° 0 mm 2 mps 696 mmHg 46%
07:00 +25°C° 0 mm 3 mps 696 mmHg 40%
08:00 +28°C° 0 mm 3 mps 697 mmHg 35%
09:00 +30°C° 0 mm 4 mps 698 mmHg 30%
10:00 +33°C° 0 mm 4 mps 698 mmHg 27%
11:00 +35°C° 0 mm 4 mps 698 mmHg 23%
12:00 +36°C° 0 mm 5 mps 698 mmHg 20%
13:00 +37°C° 0 mm 5 mps 697 mmHg 19%
14:00 +37°C° 0 mm 4 mps 697 mmHg 19%
15:00 +37°C° 0 mm 4 mps 696 mmHg 19%
16:00 +36°C° 0 mm 3 mps 696 mmHg 21%
17:00 +35°C° 0 mm 3 mps 695 mmHg 23%
18:00 +34°C° 0 mm 2 mps 695 mmHg 25%
19:00 +31°C° 0 mm 2 mps 695 mmHg 27%
20:00 +30°C° 0 mm 2 mps 695 mmHg 29%
21:00 +29°C° 0 mm 1 mps 695 mmHg 30%
22:00 +29°C° 0 mm 1 mps 695 mmHg 32%
23:00 +28°C° 0 mm 1 mps 695 mmHg 34%
Show more